TimePST,TemperatureF,Dew PointF,Humidity,Sea Level PressureIn,VisibilityMPH,Wind Direction,Wind SpeedMPH,Gust SpeedMPH,PrecipitationIn,Events,Conditions,WindDirDegrees,DateUTC
12:53 AM,27.0,12.0,53,30.23,10.0,North,8.1,18.4,N/A,,Overcast,10,2013-11-22 08:53:00
1:53 AM,26.1,9.0,49,30.23,10.0,North,8.1,-,N/A,,Scattered Clouds,10,2013-11-22 09:53:00
2:53 AM,25.0,7.0,46,30.25,10.0,Variable,6.9,-,N/A,,Clear,0,2013-11-22 10:53:00
3:53 AM,25.0,6.1,45,30.26,10.0,North,-9999.0,-,N/A,,Clear,0,2013-11-22 11:53:00
4:53 AM,25.0,3.9,41,30.27,10.0,NNE,5.8,-,N/A,,Mostly Cloudy,20,2013-11-22 12:53:00
5:53 AM,25.0,3.0,39,30.27,10.0,NE,8.1,-,N/A,,Mostly Cloudy,50,2013-11-22 13:53:00
6:53 AM,26.1,1.0,34,30.29,10.0,NNE,9.2,16.1,N/A,,Mostly Cloudy,30,2013-11-22 14:53:00
7:53 AM,27.0,1.9,34,30.30,10.0,Variable,6.9,-,N/A,,Overcast,0,2013-11-22 15:53:00
8:53 AM,30.0,3.0,32,30.29,10.0,Variable,6.9,-,N/A,,Overcast,0,2013-11-22 16:53:00
9:53 AM,30.9,-0.0,27,30.26,10.0,North,15.0,31.1,N/A,,Clear,350,2013-11-22 17:53:00
10:53 AM,34.0,3.0,27,30.25,10.0,Variable,3.5,17.3,N/A,,Clear,0,2013-11-22 18:53:00
11:53 AM,33.1,6.1,32,30.25,10.0,Variable,6.9,-,N/A,,Partly Cloudy,0,2013-11-22 19:53:00
12:53 PM,34.0,7.0,32,30.22,10.0,North,8.1,-,N/A,,Scattered Clouds,350,2013-11-22 20:53:00
1:53 PM,33.1,7.0,34,30.20,10.0,Variable,4.6,-,N/A,,Clear,0,2013-11-22 21:53:00
2:53 PM,33.1,7.0,34,30.20,10.0,Variable,3.5,-,N/A,,Clear,0,2013-11-22 22:53:00
3:53 PM,33.1,6.1,32,30.20,10.0,North,-9999.0,-,N/A,,Clear,0,2013-11-22 23:53:00
4:53 PM,32.0,8.1,37,30.20,10.0,Variable,6.9,-,N/A,,Clear,0,2013-11-23 00:53:00
5:53 PM,32.0,10.0,40,30.20,10.0,Variable,4.6,-,N/A,,Clear,0,2013-11-23 01:53:00
6:53 PM,32.0,10.0,40,30.19,10.0,Variable,4.6,-,N/A,,Clear,0,2013-11-23 02:53:00
7:53 PM,33.1,10.0,38,30.19,10.0,Variable,4.6,-,N/A,,Clear,0,2013-11-23 03:53:00
8:53 PM,33.1,10.0,38,30.18,10.0,Variable,3.5,-,N/A,,Clear,0,2013-11-23 04:53:00
9:53 PM,33.1,9.0,37,30.16,10.0,Variable,3.5,-,N/A,,Clear,0,2013-11-23 05:53:00
10:53 PM,33.1,8.1,35,30.14,10.0,Variable,3.5,-,N/A,,Clear,0,2013-11-23 06:53:00
11:53 PM,32.0,8.1,37,30.14,10.0,Variable,4.6,-,N/A,,Clear,0,2013-11-23 07:53:00